FW5359 Weather Reports


time (UTC)temp
F
wind
direction
speed
knots
gust
knots
rain 1hr
in
rain 24hr
in
rain mn
in
humidity
%
barometer
mb
20260903202549 98 251 2.6 7.0 0.00 0.00 0.00 44 1012.6
20260903202043 98 147 1.7 6.1 0.00 0.00 0.00 45 1012.5
20260903201537 98 161 1.7 6.1 0.00 0.00 0.00 44 1012.7
20260903201031 98 163 1.7 5.2 0.00 0.00 0.00 46 1012.7
20260903200524 98 113 1.7 6.1 0.00 0.00 0.00 47 1012.7
20260903200019 98 179 1.7 6.1 0.00 0.00 0.00 46 1012.8
20260903195744 98 108 1.7 6.1 0.00 0.00 0.00 47 1012.7
20260903195007 98 101 2.6 7.8 0.00 0.00 0.00 48 1012.9
20260903194501 97 112 2.6 7.8 0.00 0.00 0.00 49 1012.9
20260903193955 97 52 1.7 6.1 0.00 0.00 0.00 49 1013.0
20260903193449 97 152 2.6 6.1 0.00 0.00 0.00 49 1013.1
20260903192943 97 161 2.6 6.1 0.00 0.00 0.00 48 1013.2
20260903192708 96 101 1.7 6.1 0.00 0.00 0.00 51 1013.2
20260903192205 96 159 1.7 7.8 0.00 0.00 0.00 51 1013.3
20260903191435 96 130 1.7 7.8 0.00 0.00 0.00 51 1013.4
20260903190935 96 196 2.6 9.6 0.00 0.00 0.00 53 1013.5
20260903190435 96 138 1.7 9.6 0.00 0.00 0.00 52 1013.6
20260903185933 95 156 1.7 7.0 0.00 0.00 0.00 52 1013.7
20260903185433 95 151 2.6 7.0 0.00 0.00 0.00 53 1013.7
20260903184936 95 111 2.6 6.1 0.00 0.00 0.00 52 1013.9
20260903184431 95 92 1.7 7.8 0.00 0.00 0.00 52 1014.0
20260903183931 95 182 1.7 7.8 0.00 0.00 0.00 53 1014.0
20260903183701 94 213 2.6 8.7 0.00 0.00 0.00 54 1014.0
20260903182927 94 167 2.6 8.7 0.00 0.00 0.00 55 1014.2
20260903182425 94 154 1.7 6.1 0.00 0.00 0.00 55 1014.3
20260903181925 94 188 2.6 7.8 0.00 0.00 0.00 55 1014.4
20260903181425 94 161 2.6 7.8 0.00 0.00 0.00 57 1014.5
20260903180922 94 228 1.7 7.0 0.00 0.00 0.00 57 1014.5
20260903180423 94 173 2.6 8.7 0.00 0.00 0.00 57 1014.5
20260903175923 93 161 2.6 8.7 0.00 0.00 0.00 56 1014.7
20260903175420 93 150 2.6 8.7 0.00 0.00 0.00 58 1014.8
20260903174921 93 124 2.6 7.0 0.00 0.00 0.00 59 1014.8
20260903174421 93 193 2.6 7.0 0.00 0.00 0.00 59 1014.8
20260903174151 93 134 2.6 6.1 0.00 0.00 0.00 58 1014.9
20260903173423 92 150 2.6 6.1 0.00 0.00 0.00 58 1015.0
20260903172921 92 147 1.7 8.7 0.00 0.00 0.00 60 1015.0
20260903172421 92 204 1.7 8.7 0.00 0.00 0.00 61 1015.2
20260903171922 92 117 1.7 7.0 0.00 0.00 0.00 62 1015.2
20260903171421 92 196 1.7 5.2 0.00 0.00 0.00 62 1015.3
20260903171151 91 215 1.7 5.2 0.00 0.00 0.00 62 1015.3
20260903170651 91 235 1.7 6.1 0.00 0.00 0.00 61 1015.4
20260903165921 90 200 1.7 6.1 0.00 0.00 0.00 63 1015.5
20260903165421 90 197 2.6 7.0 0.00 0.00 0.00 65 1015.5
20260903164916 89 132 2.6 7.0 0.00 0.00 0.00 65 1015.6
20260903164649 89 203 2.6 6.1 0.00 0.00 0.00 65 1015.7
20260903163917 89 178 1.7 5.2 0.00 0.00 0.00 66 1015.6
20260903163417 89 240 1.7 6.1 0.00 0.00 0.00 69 1015.7
20260903162917 89 259 1.7 6.1 0.00 0.00 0.00 68 1015.7
20260903162417 89 200 1.7 6.1 0.00 0.00 0.00 67 1015.7
20260903161917 88 205 2.6 7.0 0.00 0.00 0.00 68 1015.7
20260903161417 88 146 2.6 8.7 0.00 0.00 0.00 70 1015.7
20260903160918 87 238 2.6 8.7 0.00 0.00 0.00 70 1015.7
20260903160412 87 169 1.7 7.0 0.00 0.00 0.00 71 1015.6
20260903155910 87 180 1.7 5.2 0.00 0.00 0.00 71 1015.6
20260903155411 87 202 1.7 5.2 0.00 0.00 0.00 70 1015.6
20260903154911 87 229 1.7 6.1 0.00 0.00 0.00 72 1015.6
20260903154411 87 165 1.7 6.1 0.00 0.00 0.00 72 1015.6
20260903153911 86 182 1.7 5.2 0.00 0.00 0.00 73 1015.7
20260903153411 85 187 1.7 7.0 0.00 0.00 0.00 74 1015.6
20260903152909 85 215 1.7 7.0 0.00 0.00 0.00 75 1015.7
20260903152409 85 238 1.7 5.2 0.00 0.00 0.00 75 1015.7
20260903151912 84 217 1.7 6.1 0.00 0.00 0.00 76 1015.7
20260903151406 84 204 1.7 6.1 0.00 0.00 0.00 77 1015.7
20260903150907 84 213 1.7 4.3 0.00 0.00 0.00 77 1015.6
20260903150407 84 213 0.9 5.2 0.00 0.00 0.00 77 1015.7
20260903145907 84 223 1.7 7.0 0.00 0.00 0.00 78 1015.7
20260903145407 83 182 2.6 7.0 0.00 0.00 0.00 78 1015.8
20260903144905 83 269 1.7 11.3 0.00 0.00 0.00 78 1015.7
20260903144404 83 219 1.7 11.3 0.00 0.00 0.00 79 1015.7
20260903143858 83 262 1.7 7.0 0.00 0.00 0.00 80 1015.7
20260903143352 83 244 1.7 7.0 0.00 0.00 0.00 80 1015.7
20260903143116 82 196 1.7 5.2 0.00 0.00 0.00 81 1015.7
20260903142340 82 213 0.9 4.3 0.00 0.00 0.00 81 1015.8
20260903141834 82 244 0.9 4.3 0.00 0.00 0.00 82 1015.8
20260903141328 81 248 1.7 6.1 0.00 0.00 0.00 82 1015.8
20260903140822 81 156 1.7 6.1 0.00 0.00 0.00 82 1015.8
20260903140315 81 174 1.7 8.7 0.00 0.00 0.00 84 1015.8
20260903135811 80 215 1.7 8.7 0.00 0.00 0.00 84 1015.8
20260903135306 80 208 1.7 5.2 0.00 0.00 0.00 85 1015.9
20260903135029 80 206 0.9 3.5 0.00 0.00 0.00 85 1016.0
20260903134252 80 216 0.9 4.3 0.00 0.00 0.00 86 1016.1
20260903133746 80 216 0.9 4.3 0.00 0.00 0.00 86 1016.0
20260903133240 80 242 0.9 4.3 0.00 0.00 0.00 86 1016.0
20260903132733 79 242 0.9 4.3 0.00 0.00 0.00 87 1016.0
20260903132500 79 181 0.9 3.5 0.00 0.00 0.00 87 1015.9
20260903131722 79 207 0.9 2.6 0.00 0.00 0.00 87 1015.9
20260903131447 79 210 0.9 3.5 0.00 0.00 0.00 88 1015.9
20260903130710 78 210 0.9 3.5 0.00 0.00 0.00 88 1015.9
20260903130204 78 212 0.9 2.6 0.00 0.00 0.00 88 1015.9
20260903125658 78 213 0.0 1.7 0.00 0.00 0.00 88 1015.8
20260903125152 78 213 0.0 1.7 0.00 0.00 0.00 88 1015.8
20260903124916 78 213 0.0 2.6 0.00 0.00 0.00 88 1015.6
20260903124140 78 213 0.0 2.6 0.00 0.00 0.00 89 1015.7
20260903123634 78 213 0.9 2.6 0.00 0.00 0.00 88 1015.6
20260903123128 78 213 0.0 2.6 0.00 0.00 0.00 88 1015.5
20260903122622 78 212 0.0 2.6 0.00 0.00 0.00 88 1015.5
20260903122116 78 212 0.9 2.6 0.00 0.00 0.00 88 1015.4
20260903121609 78 212 0.9 3.5 0.00 0.00 0.00 88 1015.3
20260903121104 78 212 0.9 3.5 0.00 0.00 0.00 88 1015.3
20260903120558 78 211 0.9 2.6 0.00 0.00 0.00 88 1015.3
20260903115546 78 212 0.0 4.3 0.00 0.00 0.00 87 1015.2
20260903114538 78 212 0.9 3.5 0.00 0.00 0.00 87 1015.3
20260903114038 78 214 0.9 3.5 0.00 0.00 0.00 87 1015.2
20260903113537 78 213 0.9 3.5 0.00 0.00 0.00 87 1015.2
20260903113034 78 213 0.9 3.5 0.00 0.00 0.00 87 1015.2
20260903112807 79 213 0.9 3.5 0.00 0.00 0.00 87 1015.3
20260903112034 79 213 0.9 3.5 0.00 0.00 0.00 86 1015.2
20260903111532 79 197 0.9 5.2 0.00 0.00 0.00 86 1015.2
20260903111030 79 221 1.7 6.1 0.00 0.00 0.00 86 1015.2
20260903110530 79 240 1.7 6.1 0.00 0.00 0.00 86 1015.2
20260903110029 79 281 1.7 6.1 0.00 0.00 0.00 86 1015.2
20260903105528 79 215 1.7 6.1 0.00 0.00 0.00 86 1015.3
20260903105259 79 235 1.7 6.1 0.00 0.00 0.00 86 1015.3
20260903104526 79 232 1.7 6.1 0.00 0.00 0.00 85 1015.3
20260903104026 79 210 0.9 5.2 0.00 0.00 0.00 85 1015.2
20260903103755 79 232 0.9 4.3 0.00 0.00 0.00 86 1015.2
20260903103026 79 234 0.9 4.3 0.00 0.00 0.00 86 1015.3
20260903102758 79 208 0.9 2.6 0.00 0.00 0.00 86 1015.3
20260903102027 79 209 0.9 3.5 0.00 0.00 0.00 86 1015.3
20260903101525 79 221 0.9 3.5 0.00 0.00 0.00 86 1015.3
20260903101025 79 226 0.9 2.6 0.00 0.00 0.00 86 1015.2
20260903100522 79 226 0.9 7.0 0.00 0.00 0.00 86 1015.2
20260903100022 79 226 0.9 7.0 0.00 0.00 0.00 86 1015.2
20260903095753 79 236 0.9 6.1 0.00 0.00 0.00 86 1014.9
20260903095022 79 163 0.9 4.3 0.00 0.00 0.00 86 1014.9
20260903094522 79 161 0.9 4.3 0.00 0.00 0.00 86 1015.0
20260903094022 79 159 1.7 7.0 0.00 0.00 0.00 86 1015.2
20260903093522 79 159 2.6 7.0 0.00 0.00 0.00 86 1015.2
20260903093022 79 176 1.7 7.0 0.00 0.00 0.00 86 1015.2
20260903092522 79 159 1.7 6.1 0.00 0.00 0.00 86 1015.2
20260903092022 79 190 1.7 6.1 0.00 0.00 0.00 86 1015.3
20260903091522 79 171 1.7 6.1 0.00 0.00 0.00 86 1015.2
20260903091252 79 193 0.9 3.5 0.00 0.00 0.00 86 1015.2
20260903090522 79 190 1.7 5.2 0.00 0.00 0.00 86 1015.0
20260903090022 79 165 1.7 7.0 0.00 0.00 0.00 86 1015.2
20260903085521 79 171 1.7 7.0 0.00 0.00 0.00 86 1015.2
20260903085015 79 200 1.7 5.2 0.00 0.00 0.00 86 1015.2
20260903084512 79 171 1.7 5.2 0.00 0.00 0.00 86 1015.3
20260903084012 79 172 1.7 2.6 0.00 0.00 0.00 85 1015.2
20260903083512 79 174 0.9 5.2 0.00 0.00 0.00 85 1015.2
20260903083012 80 178 0.9 5.2 0.00 0.00 0.00 84 1015.2
20260903081511 80 169 0.9 4.3 0.00 0.00 0.00 84 1015.2
20260903081007 80 170 1.7 6.1 0.00 0.00 0.00 83 1015.2
20260903080505 80 171 1.7 6.1 0.00 0.00 0.00 83 1015.2
20260903080004 80 150 2.6 7.8 0.00 0.00 0.00 83 1015.2
20260903075503 80 153 1.7 7.8 0.00 0.00 0.00 82 1014.9
20260903075004 80 167 0.9 7.0 0.00 0.00 0.00 81 1014.9
20260903074503 80 173 0.9 5.2 0.00 0.00 0.00 81 1014.9
20260903074004 80 234 0.9 5.2 0.00 0.00 0.00 80 1015.0
20260903073502 81 222 0.9 3.5 0.00 0.00 0.00 79 1015.0
20260903073233 81 225 0.0 3.5 0.00 0.00 0.00 79 1015.3
20260903072501 81 225 0.9 3.5 0.00 0.00 0.00 78 1015.2
20260903071959 81 225 1.7 7.8 0.00 0.00 0.00 78 1015.2
20260903071502 81 209 1.7 7.8 0.00 0.00 0.00 78 1015.2
20260903070955 81 178 0.9 5.2 0.00 0.00 0.00 78 1015.3
20260903070449 81 168 0.9 5.2 0.00 0.00 0.00 78 1015.3
20260903065944 81 171 1.7 4.3 0.00 0.00 0.00 78 1015.4
20260903065438 81 171 1.7 7.8 0.00 0.00 0.00 77 1015.5
20260903064932 81 171 2.6 7.8 0.00 0.00 0.00 77 1015.5
20260903064426 82 156 1.7 7.0 0.00 0.00 0.00 78 1015.5
20260903063919 82 165 0.9 5.2 0.00 0.00 0.00 78 1015.4
20260903063414 82 165 0.9 3.5 0.00 0.00 0.00 77 1015.5
20260903062913 82 165 1.7 5.2 0.00 0.00 0.00 77 1015.5
20260903062402 82 165 1.7 9.6 0.00 0.00 0.00 76 1015.5
20260903061856 82 178 1.7 9.6 0.00 0.00 0.00 76 1015.5
20260903061350 83 171 1.7 8.7 0.00 0.00 0.00 76 1015.4
20260903060843 83 178 2.6 7.8 0.00 0.00 0.00 76 1015.4
20260903060338 83 185 2.6 7.8 0.00 0.00 0.00 75 1015.4
20260903055326 83 159 1.7 6.1 0.00 0.00 0.00 74 1015.3
20260903054819 83 158 1.7 6.1 0.00 0.00 0.00 74 1015.3
20260903054313 83 163 1.7 6.1 0.00 0.00 0.00 73 1015.3
20260903053807 83 156 1.7 5.2 0.00 0.00 0.00 73 1015.3
20260903053302 84 155 1.7 5.2 0.00 0.00 0.00 73 1015.3
20260903052756 84 157 1.7 5.2 0.00 0.00 0.00 72 1015.4
20260903052250 84 161 1.7 5.2 0.00 0.00 0.00 71 1015.3
20260903052014 84 162 1.7 5.2 0.00 0.00 0.00 70 1015.3
20260903051239 85 159 1.7 5.2 0.00 0.00 0.00 69 1015.3
20260903050732 85 159 0.9 5.2 0.00 0.00 0.00 68 1015.2
20260903050229 85 159 0.9 6.1 0.00 0.00 0.00 67 1015.2
20260903045729 85 160 1.7 6.1 0.00 0.00 0.00 66 1015.0
20260903045227 86 149 1.7 6.1 0.00 0.00 0.00 65 1015.2
20260903044725 86 181 2.6 9.6 0.00 0.00 0.00 64 1015.2
20260903044224 86 175 2.6 9.6 0.00 0.00 0.00 64 1015.2
20260903043724 86 178 2.6 7.8 0.00 0.00 0.00 63 1015.0
20260903043223 87 207 2.6 9.6 0.00 0.00 0.00 63 1014.9
20260903042723 87 150 3.5 9.6 0.00 0.00 0.00 62 1015.0
20260903042220 87 184 2.6 9.6 0.00 0.00 0.00 62 1015.0
20260903041723 87 189 2.6 7.8 0.00 0.00 0.00 62 1014.8
20260903041456 87 227 1.7 7.0 0.00 0.00 0.00 62 1014.8
20260903040716 87 184 2.6 7.8 0.00 0.00 0.00 63 1014.8
20260903040218 88 122 3.5 9.6 0.00 0.00 0.00 65 1014.7
20260903035716 88 175 2.6 9.6 0.00 0.00 0.00 64 1014.7
20260903035216 88 166 1.7 8.7 0.00 0.00 0.00 64 1014.6
20260903034717 88 167 2.6 8.7 0.00 0.00 0.00 64 1014.5
20260903033715 88 188 1.7 7.0 0.00 0.00 0.00 63 1014.3
20260903033210 87 167 2.6 7.8 0.00 0.00 0.00 63 1014.3
20260903032704 87 165 1.7 7.8 0.00 0.00 0.00 61 1014.3
20260903032158 87 169 1.7 7.8 0.00 0.00 0.00 58 1014.2
20260903031652 87 147 1.7 8.7 0.00 0.00 0.00 57 1014.0
20260903031147 86 138 0.9 8.7 0.00 0.00 0.00 57 1014.0
20260903030640 86 156 0.0 0.0 0.00 0.00 0.00 57 1013.7
20260903030405 86 156 0.0 0.0 0.00 0.00 0.00 56 1013.6
20260903025628 86 156 0.0 0.9 0.00 0.00 0.00 56 1013.6
20260903025122 86 156 0.0 0.9 0.00 0.00 0.00 56 1013.5
20260903024616 86 156 0.0 0.0 0.00 0.00 0.00 56 1013.4
20260903024110 87 156 0.0 0.0 0.00 0.00 0.00 56 1013.3
20260903023604 87 156 0.0 0.0 0.00 0.00 0.00 55 1013.3
20260903023058 87 156 0.0 0.0 0.00 0.00 0.00 54 1013.2
20260903022824 87 156 0.0 0.9 0.00 0.00 0.00 55 1013.2
20260903022316 88 156 0.0 0.9 0.00 0.00 0.00 54 1013.2
20260903021540 88 156 0.0 0.0 0.00 0.00 0.00 53 1013.2
20260903020534 89 156 0.0 1.7 0.00 0.00 0.00 51 1013.0
20260903020034 89 156 0.0 1.7 0.00 0.00 0.00 51 1013.0
20260903015534 90 156 0.0 0.0 0.00 0.00 0.00 51 1013.0
20260903015035 90 156 0.0 0.0 0.00 0.00 0.00 50 1012.8
20260903014802 91 156 0.0 0.0 0.00 0.00 0.00 50 1012.8
20260903014032 91 155 0.0 0.0 0.00 0.00 0.00 48 1012.8
20260903013532 91 155 0.0 0.0 0.00 0.00 0.00 47 1012.7
20260903013032 92 155 0.0 0.9 0.00 0.00 0.00 47 1012.7
20260903012530 92 155 0.0 0.9 0.00 0.00 0.00 47 1012.7
20260903012028 92 155 0.0 0.0 0.00 0.00 0.00 46 1012.6
20260903011526 93 155 0.0 0.9 0.00 0.00 0.00 46 1012.6
20260903011024 93 155 0.0 0.9 0.00 0.00 0.00 46 1012.7
20260903010522 93 155 0.0 0.0 0.00 0.00 0.00 46 1012.6
20260903010020 94 155 0.0 0.9 0.00 0.00 0.00 45 1012.6
20260903005749 94 155 0.0 0.9 0.00 0.00 0.00 44 1012.6
20260903005016 94 155 0.0 1.7 0.00 0.00 0.00 44 1012.7
20260903004514 94 155 0.0 1.7 0.00 0.00 0.00 44 1012.7
20260903004014 94 155 0.0 2.6 0.00 0.00 0.00 44 1012.7
20260903003516 95 155 0.0 2.6 0.00 0.00 0.00 43 1012.7
20260903003016 95 155 0.0 1.7 0.00 0.00 0.00 43 1012.7
20260903002508 95 155 0.9 2.6 0.00 0.00 0.00 43 1012.7
20260903002002 96 155 0.9 4.3 0.00 0.00 0.00 42 1012.6
20260903001456 96 155 0.9 4.3 0.00 0.00 0.00 41 1012.7
20260903000952 96 155 0.9 4.3 0.00 0.00 0.00 40 1012.8
20260903000454 97 155 0.9 4.3 0.00 0.00 0.00 39 1012.7
20260902235953 97 155 0.9 4.3 0.00 0.00 0.00 39 1012.8
20260902235452 97 155 1.7 4.3 0.00 0.00 0.00 39 1012.8
20260902235223 98 155 0.9 4.3 0.00 0.00 0.00 38 1012.9
20260902234450 98 155 0.9 4.3 0.00 0.00 0.00 38 1012.9
20260902233950 98 155 0.9 4.3 0.00 0.00 0.00 38 1012.9
20260902233450 98 154 0.9 4.3 0.00 0.00 0.00 38 1012.9
20260902232950 98 211 0.9 3.5 0.00 0.00 0.00 37 1013.0
20260902232450 98 123 0.9 2.6 0.00 0.00 0.00 38 1013.0
20260902231946 98 123 1.7 3.5 0.00 0.00 0.00 38 1012.9
20260902231446 98 121 1.7 6.1 0.00 0.00 0.00 38 1012.9
20260902231217 99 126 1.7 6.1 0.00 0.00 0.00 37 1012.9
20260902230446 99 246 1.7 6.1 0.00 0.00 0.00 38 1012.9
20260902225946 99 125 0.9 3.5 0.00 0.00 0.00 38 1012.9
20260902225449 99 117 0.9 3.5 0.00 0.00 0.00 37 1013.0
20260902225219 99 114 0.9 4.3 0.00 0.00 0.00 38 1013.0
20260902224449 99 145 1.7 4.3 0.00 0.00 0.00 38 1013.0
20260902223948 99 118 0.9 4.3 0.00 0.00 0.00 38 1013.0
20260902223444 99 136 0.9 7.0 0.00 0.00 0.00 38 1012.9
20260902222942 99 179 1.7 7.0 0.00 0.00 0.00 38 1013.0
20260902221942 100 115 1.7 5.2 0.00 0.00 0.00 39 1013.0
20260902221442 100 257 1.7 5.2 0.00 0.00 0.00 37 1013.1
20260902220944 100 166 1.7 5.2 0.00 0.00 0.00 38 1013.2
20260902220437 100 177 0.9 5.2 0.00 0.00 0.00 39 1013.2
20260902215936 100 187 0.9 2.6 0.00 0.00 0.00 39 1013.2
20260902215436 100 188 1.7 6.1 0.00 0.00 0.00 39 1013.3
20260902215206 100 184 1.7 6.1 0.00 0.00 0.00 39 1013.2
20260902214438 99 138 1.7 4.3 0.00 0.00 0.00 39 1013.3
20260902213935 100 198 1.7 6.1 0.00 0.00 0.00 39 1013.3
20260902213434 100 171 1.7 6.1 0.00 0.00 0.00 39 1013.3
20260902212932 99 262 1.7 5.2 0.00 0.00 0.00 40 1013.3
20260902212431 100 171 2.6 5.2 0.00 0.00 0.00 38 1013.4
20260902211932 100 162 1.7 5.2 0.00 0.00 0.00 39 1013.4
20260902211432 100 142 1.7 5.2 0.00 0.00 0.00 41 1013.4
20260902210931 100 175 1.7 5.2 0.00 0.00 0.00 40 1013.5
20260902210425 99 275 0.9 4.3 0.00 0.00 0.00 41 1013.6
20260902205919 99 152 0.9 7.8 0.00 0.00 0.00 42 1013.6
20260902205413 98 155 1.7 7.8 0.00 0.00 0.00 42 1013.7
20260902205138 99 70 1.7 7.0 0.00 0.00 0.00 41 1013.8
20260902204632 99 150 1.7 7.0 0.00 0.00 0.00 41 1013.9
20260902203854 99 204 1.7 7.0 0.00 0.00 0.00 43 1013.9
20260902203348 99 156 2.6 7.8 0.00 0.00 0.00 42 1014.0